• MPC Preparation (Info)

  • MPEC 2014-R62 : 2014 RC12

    The following Minor Planet Electronic Circular may be linked-to from your own Web pages, but must not otherwise be redistributed electronically.

    A form allowing access to any MPEC is at the bottom of this page.


    Read MPEC 2014-R61 Read MPEC 2014-R63


    M.P.E.C. 2014-R62                                Issued 2014 Sept. 6, 16:37 UT
    
         The Minor Planet Electronic Circulars contain information on unusual
             minor planets and routine data on comets.  They are published
       on behalf of Commission 20 of the International Astronomical Union by the
              Minor Planet Center, Smithsonian Astrophysical Observatory,
                              Cambridge, MA 02138, U.S.A.
    
                 Prepared using the Tamkin Foundation Computer Network
    
                                  MPC@CFA.HARVARD.EDU
                URL https://www.minorplanetcenter.net/    ISSN 1523-6714
    
                                       2014 RC12
    
    Observations:
         K14R12C* C2014 09 03.43841 03 54 13.83 +19 28 30.9          20.4 VqER062G96
         K14R12C  C2014 09 03.44434 03 54 14.94 +19 28 38.8          20.2 VqER062G96
         K14R12C  C2014 09 03.45027 03 54 16.05 +19 28 46.5          20.4 VqER062G96
         K14R12C  C2014 09 03.45619 03 54 17.20 +19 28 53.9          20.4 VqER062G96
         K14R12C KC2014 09 04.33891 03 57 08.21 +19 48 00.9          20.6 VqER062H21
         K14R12C KC2014 09 04.34702 03 57 09.75 +19 48 11.4          20.5 VqER062H21
         K14R12C KC2014 09 04.35513 03 57 11.29 +19 48 22.0          20.4 VqER062H21
         K14R12C KC2014 09 06.10508004 02 49.85 +20 26 03.1          20.1 VqER062I93
         K14R12C KC2014 09 06.11517704 02 51.73 +20 26 16.0          19.9 VqER062I93
         K14R12C KC2014 09 06.12385804 02 53.40 +20 26 27.4          19.8 VqER062I93
         K14R12C  C2014 09 06.42010 04 03 50.77 +20 32 50.6          20.1 VqER062G96
         K14R12C  C2014 09 06.42688 04 03 52.04 +20 32 59.5          20.1 VqER062G96
         K14R12C  C2014 09 06.43366 04 03 53.34 +20 33 08.3          19.9 VqER062G96
         K14R12C  C2014 09 06.44044 04 03 54.62 +20 33 16.9          19.8 VqER062G96
    
    Observer details:
    G96 Mt. Lemmon Survey.  Observers A. D. Grauer, E. J. Christensen.  Measurers
        E. J. Christensen, A. R. Gibbs, A. D. Grauer, R. E. Hill, J. A. Johnson,
        R. A. Kowalski, S. M. Larson, F. C. Shelly.  1.5-m reflector + CCD.
    H21 Astronomical Research Observatory, Westfield.  Observer R. Holmes.
        Measurers L. Buzzi, S. Foglia, T. Vorobjov, T. Linder.  0.61-m f/4.0
        astrograph + CCD.
    I93 St Pardon de Conques.  Observer F. Losse.  0.40-m f/3.7 reflector + CCD.
    
    Orbital elements:
    2014 RC12                                                Earth MOID = 0.2798 AU
    Epoch 2014 Dec. 9.0 TT = JDT 2457000.5                  MPC
    M  23.43339              (2000.0)            P               Q
    n   0.30513922     Peri.   12.80347     +0.89817694     -0.43866942
    a   2.1850969      Node    13.33030     +0.39140985     +0.76774969
    e   0.4166198      Incl.    7.25293     +0.20019117     +0.46704342
    P   3.23           H   18.7           G   0.15           U   9
    Residuals in seconds of arc
    140903 G96  0.0   0.1+    140904 H21  0.1-  0.2-    140906 G96  0.2-  0.0
    140903 G96  0.1-  0.2+    140904 H21  0.0   0.2-    140906 G96  0.3-  0.1+
    140903 G96  0.3-  0.1+    140906 I93  0.4+  0.1+    140906 G96  0.0   0.1+
    140903 G96  0.2+  0.2-    140906 I93  0.1-  0.1-    140906 G96  0.0   0.1-
    140904 H21  0.0   0.0     140906 I93  0.2+  0.0
    
    Ephemeris:
    2014 RC12                a,e,i = 2.19, 0.42, 7                   q = 1.2747
    Date    TT    R. A. (2000) Decl.     Delta      r     Elong.  Phase     V
    2014 08 07    02 27 16.3 +09 11 19   0.7872  1.3546    96.7    48.0    20.6
    ...
    2014 08 22    03 14 14.3 +14 51 35   0.7013  1.3130    98.5    49.6    20.4
    ...
    2014 08 30    03 39 54.5 +17 51 04   0.6637  1.2966    99.5    50.2    20.2
    ...
    2014 09 05    03 59 15.5 +20 02 22   0.6390  1.2872   100.4    50.4    20.1
    2014 09 06    04 02 28.9 +20 23 53   0.6352  1.2859   100.5    50.4    20.1
    2014 09 07    04 05 42.2 +20 45 17   0.6314  1.2846   100.7    50.4    20.1
    ...
    2014 09 13    04 24 57.3 +22 50 50   0.6103  1.2787   101.7    50.4    20.0
    ...
    2014 09 21    04 50 07.8 +25 29 45   0.5858  1.2749   103.5    50.0    19.9
    ...
    2014 10 06    05 33 57.0 +29 58 27   0.5491  1.2809   108.0    47.9    19.7
    
    A. U. Tomatic                (C) Copyright 2014 MPC           M.P.E.C. 2014-R62
    

    Read MPEC 2014-R61 Read MPEC 2014-R63


    MPEC number:

    Enter an MPEC number in one of the following forms:

    • 1997-B01 (the full form)
    • J97B01 (the packed version of the full form)
    • B01 (the abbreviated form)